Weather in Bereznik

Russia / Kirov Oblast     58°03′19″N   50°36′20″E
temp.,
°C
wind,
m/s
gust,
m/s
humid.,
%
clouds,
%
prec.,
mm/h
press.,
hPa
HPBL,
m
8 may, sat
sat800:00+7nw5992100 0.9 1015392
03:00+7nw3789100 1.0 1016378
06:00+8nnw238498 0.0 1018253
09:00+11nne226014 0.0 1018866
12:00+14ese334851 0.0 10171358
15:00+13se345930 0.0 1017640
18:00+14sse46695 0.0 1015417
21:00+10se4108714 0.0 1015187
9 may, sun
sun900:00+9se5129182 0.0 1014252
03:00+9se51286100 0.0 1013256
06:00+11sse71577100 0.0 1013511
09:00+16sse8126299 0.0 1013797
12:00+19s81049100 0.0 10121725
15:00+18ssw5956100 0.0 1013949
18:00+15s41166100 0.0 1013333
21:00+14sse3870100 0.0 1014165
10 may, mon
mon1000:00+13sw4975100 0.0 1015274
03:00+12sw3798100 1.5 1017309
06:00+10wnw5787100 0.0 1019487
09:00+9wnw5690100 0.4 1022485
12:00+8nnw6783100 0.8 1024812
15:00+9nnw577185 0.8 10261037
18:00+11nne24625 0.0 1027215
21:00+6nnw227224 0.0 102916
11 may, tue
tue1100:00+5n22702 0.0 103017
03:00+4n22705 0.0 103110
06:00+8nnw126113 0.0 1032119
09:00+12wnw2246100 0.0 1032832
12:00+15wnw344237 0.0 10321441
15:00+16wnw454738 0.0 10311245
18:00+14wnw236185 0.0 1030114
21:00+11wsw2273100 0.0 103112
12 may, wed
wed1200:00+10wsw3376100 0.0 103148
03:00+9w48838 0.0 1031126
06:00+12w498070 0.0 1030256
09:00+18nw46655 0.0 1029633
12:00+21wnw5649100 0.0 10281323
15:00+22nw564576 0.0 10271512
18:00+19nw3561100 0.0 1027123
21:00+15nw237232 0.0 102720